Webcam Zuidwest more information Webcam Zuidwest


Onweer radar more information blitzortung!


Regen radar more information rain snow radar


Weerstation Alkmaar Centrum

Weerstation Luyksgestel

Website Noardburgum


U vindt ons ook hier:

Het Weer Aktueel

UK Metoffice

European Weather Network

Weather Underground

AWEKAS

Citizen Weather Observer Program (CWOP)

HAMweather, WeatherForYou, PWS Weather



Het weer levert geen direct gevaar op.    Er zijn geen waarschuwingen afgegeven.
IFRIESLA82 History tables / reports. Script startWUhistory.php

Select another period ( hide this area )

Eenheden Periode Custom range Directly to
Metrisch Engels Beide
Dagelijkse Wekelijkse Maandelijkse Jaarlijkse
use both date-selectors for a custom range
previous Dag
With this date

WeatherUnderground graphs for this period ( click here ) Loading the graph can take up to a minute!


Dagelijkse Samenvatting Donderdag Sep 24 2020
Tijd Temp. ( °C ) Dew pt. ( °C ) Wind ( km/h ) van Windvlaag ( km/h ) Luchtdruk ( hPa ) Humid.( % ) Rainrate ( cm ) Zonneschijn ( W/m2 )
Hoog16,9 14,4 34,0 ZZW ( 1185/2921 ) 44,0 1000,0 94 9,40 765
Gemiddeld14,3 12,1 17,5 ZZW #59/167 22,9 997,2 87 6,90 220 #78/167
Laag11,9 10,1 6,0   10,0 994,2 70 -  
Dagelijkse Tabular details for Donderdag Sep 24 2020
Tijd Temp. ( °C ) Dew pt. ( °C ) Wind ( km/h ) van Windvlaag ( km/h ) Luchtdruk ( hPa ) Humid.( % ) Rainrate ( cm ) Zonneschijn ( W/m2 )
00:04 15,7 14,2 16,0 ZZO 18,0 995,9 91 1,27 -
00:09 15,7 14,2 13,0 ZO 18,0 995,9 91 1,27 -
00:14 15,7 14,2 14,0 ZO 18,0 995,9 91 1,27 -
00:19 15,6 14,1 16,0 ZZO 21,0 995,9 91 1,02 -
00:24 15,6 14,1 16,0 ZZO 16,0 995,9 91 1,02 -
00:29 15,6 14,3 14,0 ZZO 16,0 995,9 92 1,02 -
00:34 15,6 14,3 10,0 ZZO 16,0 995,9 92 0,76 -
00:39 15,6 14,3 16,0 ZZO 21,0 995,9 92 0,76 -
00:44 15,6 14,3 14,0 Zuiden 23,0 995,9 92 1,02 -
00:49 15,7 14,4 20,0 Zuiden 29,0 995,9 92 1,52 -
00:54 15,7 14,4 16,0 Zuiden 26,0 995,9 92 1,78 -
00:59 15,7 14,4 14,0 ZZW 21,0 995,6 92 2,03 -
01:04 15,7 14,4 14,0 Zuiden 23,0 995,6 92 2,03 -
01:09 15,6 14,3 16,0 Zuiden 18,0 995,6 92 2,03 -
01:14 15,5 14,2 18,0 Zuiden 19,0 995,6 92 2,03 -
01:19 15,4 14,1 21,0 Zuiden 21,0 995,6 92 2,29 -
01:24 15,4 14,1 20,0 ZZW 26,0 995,6 92 2,54 -
01:29 15,4 14,1 16,0 Zuiden 27,0 995,6 92 2,79 -
01:34 15,2 13,9 20,0 ZZW 27,0 995,6 92 3,05 -
01:39 15,1 13,8 26,0 ZZW 27,0 995,3 92 3,30 -
01:44 14,9 13,6 27,0 ZW 27,0 995,3 92 3,30 -
01:49 14,7 13,4 18,0 ZZW 18,0 995,3 92 3,30 -
01:54 14,6 13,3 14,0 Zuiden 21,0 995,3 92 3,56 -
01:59 14,6 13,3 13,0 Zuiden 16,0 995,3 92 4,06 -
02:04 14,6 13,3 16,0 Zuiden 16,0 994,9 92 5,08 -
02:09 14,5 13,3 14,0 Zuiden 15,0 994,6 93 5,59 -
02:14 14,4 13,3 6,0 Zuiden 15,0 994,6 93 5,59 -
02:19 14,4 13,3 6,0 Zuiden 11,0 994,2 93 5,84 -
02:24 14,4 13,3 11,0 Zuiden 18,0 994,2 93 8,38 -
02:29 14,6 13,5 11,0 ZZO 18,0 994,2 93 9,40 -
02:34 14,5 13,4 11,0 ZZW 15,0 994,6 93 9,14 -
02:39 14,5 13,4 13,0 ZW 19,0 994,6 93 9,40 -
02:44 14,4 13,3 11,0 ZZW 19,0 994,6 93 9,40 -
02:49 14,5 13,4 11,0 ZZW 16,0 994,6 93 8,89 -
02:54 14,5 13,5 14,0 Zuiden 16,0 994,6 94 8,89 -
02:59 14,6 13,6 8,0 Zuiden 16,0 994,6 94 8,89 -
03:04 14,7 13,7 13,0 ZZW 23,0 994,6 94 8,38 -
03:09 14,8 13,8 16,0 ZZW 19,0 994,9 94 7,87 -
03:14 14,8 13,8 18,0 Zuiden 21,0 994,9 94 7,87 -
03:19 14,8 13,8 23,0 Zuiden 24,0 994,6 94 7,87 -
03:24 14,8 13,8 20,0 Zuiden 23,0 994,6 94 7,87 -
03:29 14,7 13,7 14,0 Zuiden 24,0 994,6 94 4,57 -
03:34 14,6 13,6 18,0 ZZW 24,0 994,6 94 3,81 -
03:39 14,6 13,6 16,0 ZZW 21,0 994,6 94 3,81 -
03:44 14,6 13,6 18,0 Zuiden 23,0 994,6 94 3,05 -
03:49 14,6 13,6 20,0 ZZW 23,0 994,6 94 2,79 -
03:54 14,6 13,6 20,0 Zuiden 23,0 994,6 94 2,29 -
03:59 14,6 13,6 13,0 ZZW 24,0 994,6 94 2,03 -
04:04 14,6 13,6 18,0 ZZW 24,0 994,6 94 1,52 -
04:09 14,7 13,7 14,0 ZZW 26,0 994,6 94 1,27 -
04:14 14,7 13,7 16,0 ZZW 26,0 994,6 94 1,27 -
04:19 14,6 13,6 24,0 ZZW 32,0 994,6 94 0,51 -
04:24 14,3 13,3 23,0 ZZW 29,0 994,6 94 0,25 -
04:29 14,2 13,2 21,0 ZZW 26,0 994,6 94 0,25 -
04:34 14,1 13,1 26,0 ZZW 27,0 994,6 94 0,25 -
04:39 14,1 13,1 20,0 ZZW 24,0 994,6 94 0,25 -
04:44 14,1 13,1 21,0 ZZW 21,0 994,9 94 0,25 -
04:49 14,1 13,1 21,0 ZZW 29,0 994,9 94 0,25 -
04:54 14,1 13,0 23,0 ZZW 26,0 994,9 93 0,25 -
04:59 13,9 12,8 18,0 ZW 26,0 994,9 93 0,25 -
05:04 13,9 12,8 21,0 ZZW 26,0 995,3 93 0,25 -
05:09 13,9 12,8 16,0 ZW 21,0 995,3 93 0,25 -
05:14 13,9 12,8 23,0 ZW 26,0 995,3 93 - -
05:19 13,9 12,8 18,0 ZW 26,0 995,3 93 - -
05:24 13,8 12,5 18,0 ZW 24,0 995,6 92 - -
05:29 13,8 12,5 16,0 ZW 23,0 995,6 92 - -
05:34 13,7 12,4 24,0 WZW 24,0 995,6 92 - -
05:39 13,7 12,4 14,0 ZW 16,0 995,6 92 - -
05:44 13,4 12,1 14,0 ZW 18,0 995,6 92 - -
05:49 13,3 12,0 14,0 ZW 15,0 995,9 92 - -
05:54 13,2 11,9 11,0 ZW 15,0 995,9 92 - -
05:59 13,3 11,9 14,0 ZW 18,0 995,9 91 - -
06:04 13,3 11,9 13,0 ZW 18,0 995,9 91 - -
06:09 13,3 11,9 13,0 ZW 18,0 996,3 91 - -
06:14 13,2 11,8 14,0 ZW 16,0 996,3 91 - -
06:19 13,2 11,8 11,0 ZW 16,0 996,3 91 - -
06:24 13,2 11,8 13,0 ZW 15,0 996,6 91 - -
06:29 13,2 11,8 11,0 ZW 18,0 996,6 91 - -
06:34 13,1 11,7 13,0 ZW 18,0 996,6 91 - -
06:39 12,9 11,3 16,0 ZW 21,0 996,6 90 - -
06:44 12,8 11,2 13,0 ZZW 13,0 997,0 90 - -
06:49 12,8 11,2 11,0 ZW 13,0 997,0 90 - -
06:54 12,7 10,9 11,0 ZW 16,0 997,0 89 - -
06:59 12,6 10,8 10,0 ZW 15,0 997,0 89 - -
07:04 12,6 10,8 8,0 ZW 16,0 997,0 89 - -
07:09 12,4 10,6 6,0 ZW 10,0 997,0 89 - -
07:14 12,3 10,5 8,0 ZW 10,0 997,0 89 - -
07:19 12,2 10,4 11,0 ZW 11,0 997,3 89 - -
07:24 12,1 10,3 11,0 ZW 11,0 997,3 89 - -
07:29 12,0 10,2 8,0 ZZW 11,0 997,3 89 - 5
07:34 11,9 10,1 10,0 ZW 13,0 997,6 89 - 9
07:39 11,9 10,1 11,0 ZW 13,0 997,6 89 - 11
07:44 11,9 10,1 10,0 ZW 15,0 997,6 89 - 12
07:49 12,0 10,2 13,0 ZZW 16,0 997,6 89 - 16
07:54 12,1 10,3 14,0 ZW 19,0 998,0 89 - 18
07:59 12,1 10,3 16,0 ZW 19,0 998,0 89 - 18
08:04 12,2 10,4 13,0 ZW 16,0 998,0 89 - 21
08:09 12,3 10,5 11,0 ZW 18,0 998,0 89 - 21
08:14 12,2 10,4 18,0 ZW 23,0 998,0 89 - 23
08:19 12,3 10,5 18,0 ZZW 23,0 998,3 89 - 23
08:24 12,4 10,5 16,0 ZW 23,0 998,3 88 - 26
08:29 12,5 10,6 16,0 ZW 18,0 998,3 88 - 26
08:34 12,5 10,6 16,0 ZZW 18,0 998,7 88 - 26
08:39 12,6 10,5 14,0 ZW 19,0 998,7 87 - 28
08:44 12,5 10,4 16,0 ZW 23,0 998,7 87 - 30
08:49 12,6 10,5 20,0 ZW 21,0 998,7 87 - 30
08:54 12,6 10,3 14,0 ZW 23,0 998,7 86 - 32
08:59 12,7 10,4 16,0 ZW 23,0 998,7 86 - 32
09:04 12,7 10,4 14,0 ZW 26,0 999,0 86 - 33
09:09 12,8 10,4 13,0 ZW 21,0 999,0 86 - 33
09:14 12,9 10,4 16,0 ZW 21,0 999,0 85 - 33
09:19 12,9 10,4 11,0 ZW 18,0 999,0 85 - 33
09:24 13,1 10,5 14,0 ZW 19,0 999,0 85 - 33
09:29 13,2 10,6 18,0 ZW 21,0 999,0 84 - 33
09:34 13,2 10,6 26,0 ZW 26,0 999,0 84 - 35
09:39 13,3 10,7 16,0 ZZW 18,0 999,0 84 - 35
09:44 13,4 10,8 13,0 ZZW 19,0 999,0 84 - 49
09:49 13,6 10,8 18,0 ZW 24,0 999,0 84 - 77
09:54 13,7 10,9 18,0 ZW 18,0 999,3 83 - 58
09:59 13,8 10,9 24,0 WZW 24,0 999,3 83 - 39
10:04 13,9 10,9 20,0 ZZW 21,0 999,3 82 - 39
10:09 13,9 10,9 18,0 ZZW 24,0 999,3 82 - 39
10:14 14,1 10,9 23,0 ZZW 23,0 999,3 81 - 39
10:19 14,2 11,0 18,0 ZW 23,0 999,3 81 - 39
10:24 14,3 11,1 20,0 ZW 24,0 999,3 81 - 39
10:29 14,3 10,9 21,0 ZW 24,0 999,3 80 - 42
10:34 14,6 11,2 24,0 ZW 24,0 999,7 80 - 51
10:39 14,8 11,2 16,0 ZW 18,0 999,7 80 - 77
10:44 14,9 11,4 23,0 ZZW 27,0 999,7 80 - 179
10:49 15,1 11,3 29,0 ZZW 29,0 999,7 78 - 206
10:54 15,3 11,3 23,0 ZZW 29,0 999,7 78 - 149
10:59 15,5 11,3 31,0 ZZW 34,0 999,7 77 - 156
11:04 15,6 11,3 24,0 ZW 29,0 999,7 76 - 132
11:09 15,4 11,0 20,0 ZZW 31,0 999,7 75 - 107
11:14 15,5 11,0 20,0 ZZW 29,0 999,7 75 - 197
11:19 15,5 11,0 23,0 ZZW 31,0 999,7 75 - 192
11:24 15,3 11,1 26,0 ZZO 26,0 999,7 76 - 146
11:29 15,1 11,1 21,0 Zuiden 31,0 999,7 78 - 174
11:34 14,7 11,1 24,0 Zuiden 31,0 999,7 79 - 179
11:39 14,6 11,1 23,0 ZZW 24,0 1000,0 80 - 204
11:44 14,6 11,2 21,0 Zuiden 26,0 1000,0 80 - 264
11:49 15,0 11,6 13,0 Zuiden 23,0 999,7 80 - 318
11:54 15,3 11,9 26,0 Zuiden 27,0 999,7 80 - 297
11:59 15,3 11,7 21,0 ZZW 27,0 999,7 79 - 223
12:04 15,4 11,8 32,0 ZZW 35,0 999,7 79 - 197
12:09 15,3 11,5 23,0 ZZW 35,0 999,7 78 - 148
12:14 15,4 11,4 16,0 Zuiden 24,0 999,7 77 - 167
12:19 15,6 11,6 16,0 ZZW 26,0 999,7 77 - 613
12:24 15,8 11,8 23,0 ZZO 32,0 999,7 77 - 615
12:29 15,9 11,7 16,0 Zuiden 31,0 999,7 76 - 524
12:34 15,9 11,5 27,0 ZZW 37,0 999,7 75 - 552
12:39 16,2 11,8 16,0 ZZO 37,0 999,7 75 - 628
12:44 16,5 12,0 27,0 Zuiden 34,0 999,7 75 - 724
12:49 16,4 11,8 26,0 ZZW 34,0 999,7 74 - 693
12:54 16,3 11,7 16,0 ZZW 31,0 999,7 74 - 689
12:59 16,2 11,6 26,0 ZZW 35,0 999,7 74 - 582
13:04 16,4 11,8 20,0 ZZW 32,0 999,7 74 - 652
13:09 16,4 11,5 34,0 Zuiden 34,0 999,7 73 - 619
13:14 16,3 11,5 23,0 ZZW 29,0 999,7 73 - 350
13:19 16,6 11,7 31,0 ZZW 34,0 999,7 73 - 765
13:24 16,6 11,7 23,0 Zuiden 32,0 999,7 73 - 657
13:29 16,2 11,1 23,0 ZZW 27,0 999,3 72 - 271
13:34 16,6 11,5 21,0 Zuiden 44,0 999,3 73 - 744
13:39 16,8 11,5 23,0 Zuiden 44,0 999,3 72 - 700
13:44 16,9 11,6 24,0 ZZW 39,0 999,3 71 - 656
13:49 16,9 11,6 18,0 ZZW 32,0 999,3 71 - 543
13:54 16,8 11,3 34,0 ZZW 34,0 999,3 70 - 693
Dagelijkse Samenvatting Donderdag Sep 24 2020
Tijd Temp. ( °C ) Dew pt. ( °C ) Wind ( km/h ) van Windvlaag ( km/h ) Luchtdruk ( hPa ) Humid.( % ) Rainrate ( cm ) Zonneschijn ( W/m2 )
Hoog16,9 14,4 34,0 ZZW ( 1185/2921 ) 44,0 1000,0 94 9,40 765
Gemiddeld14,3 12,1 17,5 ZZW #59/167 22,9 997,2 87 6,90 220 #78/167
Laag11,9 10,1 6,0   10,0 994,2 70 -  
Dagelijkse Tabular details for Donderdag Sep 24 2020
Tijd Temp. ( °C ) Dew pt. ( °C ) Wind ( km/h ) van Windvlaag ( km/h ) Luchtdruk ( hPa ) Humid.( % ) Rainrate ( cm ) Zonneschijn ( W/m2 )
00:04 15,7 14,2 16,0 ZZO 18,0 995,9 91 1,27 -
00:09 15,7 14,2 13,0 ZO 18,0 995,9 91 1,27 -
00:14 15,7 14,2 14,0 ZO 18,0 995,9 91 1,27 -
00:19 15,6 14,1 16,0 ZZO 21,0 995,9 91 1,02 -
00:24 15,6 14,1 16,0 ZZO 16,0 995,9 91 1,02 -
00:29 15,6 14,3 14,0 ZZO 16,0 995,9 92 1,02 -
00:34 15,6 14,3 10,0 ZZO 16,0 995,9 92 0,76 -
00:39 15,6 14,3 16,0 ZZO 21,0 995,9 92 0,76 -
00:44 15,6 14,3 14,0 Zuiden 23,0 995,9 92 1,02 -
00:49 15,7 14,4 20,0 Zuiden 29,0 995,9 92 1,52 -
00:54 15,7 14,4 16,0 Zuiden 26,0 995,9 92 1,78 -
00:59 15,7 14,4 14,0 ZZW 21,0 995,6 92 2,03 -
01:04 15,7 14,4 14,0 Zuiden 23,0 995,6 92 2,03 -
01:09 15,6 14,3 16,0 Zuiden 18,0 995,6 92 2,03 -
01:14 15,5 14,2 18,0 Zuiden 19,0 995,6 92 2,03 -
01:19 15,4 14,1 21,0 Zuiden 21,0 995,6 92 2,29 -
01:24 15,4 14,1 20,0 ZZW 26,0 995,6 92 2,54 -
01:29 15,4 14,1 16,0 Zuiden 27,0 995,6 92 2,79 -
01:34 15,2 13,9 20,0 ZZW 27,0 995,6 92 3,05 -
01:39 15,1 13,8 26,0 ZZW 27,0 995,3 92 3,30 -
01:44 14,9 13,6 27,0 ZW 27,0 995,3 92 3,30 -
01:49 14,7 13,4 18,0 ZZW 18,0 995,3 92 3,30 -
01:54 14,6 13,3 14,0 Zuiden 21,0 995,3 92 3,56 -
01:59 14,6 13,3 13,0 Zuiden 16,0 995,3 92 4,06 -
02:04 14,6 13,3 16,0 Zuiden 16,0 994,9 92 5,08 -
02:09 14,5 13,3 14,0 Zuiden 15,0 994,6 93 5,59 -
02:14 14,4 13,3 6,0 Zuiden 15,0 994,6 93 5,59 -
02:19 14,4 13,3 6,0 Zuiden 11,0 994,2 93 5,84 -
02:24 14,4 13,3 11,0 Zuiden 18,0 994,2 93 8,38 -
02:29 14,6 13,5 11,0 ZZO 18,0 994,2 93 9,40 -
02:34 14,5 13,4 11,0 ZZW 15,0 994,6 93 9,14 -
02:39 14,5 13,4 13,0 ZW 19,0 994,6 93 9,40 -
02:44 14,4 13,3 11,0 ZZW 19,0 994,6 93 9,40 -
02:49 14,5 13,4 11,0 ZZW 16,0 994,6 93 8,89 -
02:54 14,5 13,5 14,0 Zuiden 16,0 994,6 94 8,89 -
02:59 14,6 13,6 8,0 Zuiden 16,0 994,6 94 8,89 -
03:04 14,7 13,7 13,0 ZZW 23,0 994,6 94 8,38 -
03:09 14,8 13,8 16,0 ZZW 19,0 994,9 94 7,87 -
03:14 14,8 13,8 18,0 Zuiden 21,0 994,9 94 7,87 -
03:19 14,8 13,8 23,0 Zuiden 24,0 994,6 94 7,87 -
03:24 14,8 13,8 20,0 Zuiden 23,0 994,6 94 7,87 -
03:29 14,7 13,7 14,0 Zuiden 24,0 994,6 94 4,57 -
03:34 14,6 13,6 18,0 ZZW 24,0 994,6 94 3,81 -
03:39 14,6 13,6 16,0 ZZW 21,0 994,6 94 3,81 -
03:44 14,6 13,6 18,0 Zuiden 23,0 994,6 94 3,05 -
03:49 14,6 13,6 20,0 ZZW 23,0 994,6 94 2,79 -
03:54 14,6 13,6 20,0 Zuiden 23,0 994,6 94 2,29 -
03:59 14,6 13,6 13,0 ZZW 24,0 994,6 94 2,03 -
04:04 14,6 13,6 18,0 ZZW 24,0 994,6 94 1,52 -
04:09 14,7 13,7 14,0 ZZW 26,0 994,6 94 1,27 -
04:14 14,7 13,7 16,0 ZZW 26,0 994,6 94 1,27 -
04:19 14,6 13,6 24,0 ZZW 32,0 994,6 94 0,51 -
04:24 14,3 13,3 23,0 ZZW 29,0 994,6 94 0,25 -
04:29 14,2 13,2 21,0 ZZW 26,0 994,6 94 0,25 -
04:34 14,1 13,1 26,0 ZZW 27,0 994,6 94 0,25 -
04:39 14,1 13,1 20,0 ZZW 24,0 994,6 94 0,25 -
04:44 14,1 13,1 21,0 ZZW 21,0 994,9 94 0,25 -
04:49 14,1 13,1 21,0 ZZW 29,0 994,9 94 0,25 -
04:54 14,1 13,0 23,0 ZZW 26,0 994,9 93 0,25 -
04:59 13,9 12,8 18,0 ZW 26,0 994,9 93 0,25 -
05:04 13,9 12,8 21,0 ZZW 26,0 995,3 93 0,25 -
05:09 13,9 12,8 16,0 ZW 21,0 995,3 93 0,25 -
05:14 13,9 12,8 23,0 ZW 26,0 995,3 93 - -
05:19 13,9 12,8 18,0 ZW 26,0 995,3 93 - -
05:24 13,8 12,5 18,0 ZW 24,0 995,6 92 - -
05:29 13,8 12,5 16,0 ZW 23,0 995,6 92 - -
05:34 13,7 12,4 24,0 WZW 24,0 995,6 92 - -
05:39 13,7 12,4 14,0 ZW 16,0 995,6 92 - -
05:44 13,4 12,1 14,0 ZW 18,0 995,6 92 - -
05:49 13,3 12,0 14,0 ZW 15,0 995,9 92 - -
05:54 13,2 11,9 11,0 ZW 15,0 995,9 92 - -
05:59 13,3 11,9 14,0 ZW 18,0 995,9 91 - -
06:04 13,3 11,9 13,0 ZW 18,0 995,9 91 - -
06:09 13,3 11,9 13,0 ZW 18,0 996,3 91 - -
06:14 13,2 11,8 14,0 ZW 16,0 996,3 91 - -
06:19 13,2 11,8 11,0 ZW 16,0 996,3 91 - -
06:24 13,2 11,8 13,0 ZW 15,0 996,6 91 - -
06:29 13,2 11,8 11,0 ZW 18,0 996,6 91 - -
06:34 13,1 11,7 13,0 ZW 18,0 996,6 91 - -
06:39 12,9 11,3 16,0 ZW 21,0 996,6 90 - -
06:44 12,8 11,2 13,0 ZZW 13,0 997,0 90 - -
06:49 12,8 11,2 11,0 ZW 13,0 997,0 90 - -
06:54 12,7 10,9 11,0 ZW 16,0 997,0 89 - -
06:59 12,6 10,8 10,0 ZW 15,0 997,0 89 - -
07:04 12,6 10,8 8,0 ZW 16,0 997,0 89 - -
07:09 12,4 10,6 6,0 ZW 10,0 997,0 89 - -
07:14 12,3 10,5 8,0 ZW 10,0 997,0 89 - -
07:19 12,2 10,4 11,0 ZW 11,0 997,3 89 - -
07:24 12,1 10,3 11,0 ZW 11,0 997,3 89 - -
07:29 12,0 10,2 8,0 ZZW 11,0 997,3 89 - 5
07:34 11,9 10,1 10,0 ZW 13,0 997,6 89 - 9
07:39 11,9 10,1 11,0 ZW 13,0 997,6 89 - 11
07:44 11,9 10,1 10,0 ZW 15,0 997,6 89 - 12
07:49 12,0 10,2 13,0 ZZW 16,0 997,6 89 - 16
07:54 12,1 10,3 14,0 ZW 19,0 998,0 89 - 18
07:59 12,1 10,3 16,0 ZW 19,0 998,0 89 - 18
08:04 12,2 10,4 13,0 ZW 16,0 998,0 89 - 21
08:09 12,3 10,5 11,0 ZW 18,0 998,0 89 - 21
08:14 12,2 10,4 18,0 ZW 23,0 998,0 89 - 23
08:19 12,3 10,5 18,0 ZZW 23,0 998,3 89 - 23
08:24 12,4 10,5 16,0 ZW 23,0 998,3 88 - 26
08:29 12,5 10,6 16,0 ZW 18,0 998,3 88 - 26
08:34 12,5 10,6 16,0 ZZW 18,0 998,7 88 - 26
08:39 12,6 10,5 14,0 ZW 19,0 998,7 87 - 28
08:44 12,5 10,4 16,0 ZW 23,0 998,7 87 - 30
08:49 12,6 10,5 20,0 ZW 21,0 998,7 87 - 30
08:54 12,6 10,3 14,0 ZW 23,0 998,7 86 - 32
08:59 12,7 10,4 16,0 ZW 23,0 998,7 86 - 32
09:04 12,7 10,4 14,0 ZW 26,0 999,0 86 - 33
09:09 12,8 10,4 13,0 ZW 21,0 999,0 86 - 33
09:14 12,9 10,4 16,0 ZW 21,0 999,0 85 - 33
09:19 12,9 10,4 11,0 ZW 18,0 999,0 85 - 33
09:24 13,1 10,5 14,0 ZW 19,0 999,0 85 - 33
09:29 13,2 10,6 18,0 ZW 21,0 999,0 84 - 33
09:34 13,2 10,6 26,0 ZW 26,0 999,0 84 - 35
09:39 13,3 10,7 16,0 ZZW 18,0 999,0 84 - 35
09:44 13,4 10,8 13,0 ZZW 19,0 999,0 84 - 49
09:49 13,6 10,8 18,0 ZW 24,0 999,0 84 - 77
09:54 13,7 10,9 18,0 ZW 18,0 999,3 83 - 58
09:59 13,8 10,9 24,0 WZW 24,0 999,3 83 - 39
10:04 13,9 10,9 20,0 ZZW 21,0 999,3 82 - 39
10:09 13,9 10,9 18,0 ZZW 24,0 999,3 82 - 39
10:14 14,1 10,9 23,0 ZZW 23,0 999,3 81 - 39
10:19 14,2 11,0 18,0 ZW 23,0 999,3 81 - 39
10:24 14,3 11,1 20,0 ZW 24,0 999,3 81 - 39
10:29 14,3 10,9 21,0 ZW 24,0 999,3 80 - 42
10:34 14,6 11,2 24,0 ZW 24,0 999,7 80 - 51
10:39 14,8 11,2 16,0 ZW 18,0 999,7 80 - 77
10:44 14,9 11,4 23,0 ZZW 27,0 999,7 80 - 179
10:49 15,1 11,3 29,0 ZZW 29,0 999,7 78 - 206
10:54 15,3 11,3 23,0 ZZW 29,0 999,7 78 - 149
10:59 15,5 11,3 31,0 ZZW 34,0 999,7 77 - 156
11:04 15,6 11,3 24,0 ZW 29,0 999,7 76 - 132
11:09 15,4 11,0 20,0 ZZW 31,0 999,7 75 - 107
11:14 15,5 11,0 20,0 ZZW 29,0 999,7 75 - 197
11:19 15,5 11,0 23,0 ZZW 31,0 999,7 75 - 192
11:24 15,3 11,1 26,0 ZZO 26,0 999,7 76 - 146
11:29 15,1 11,1 21,0 Zuiden 31,0 999,7 78 - 174
11:34 14,7 11,1 24,0 Zuiden 31,0 999,7 79 - 179
11:39 14,6 11,1 23,0 ZZW 24,0 1000,0 80 - 204
11:44 14,6 11,2 21,0 Zuiden 26,0 1000,0 80 - 264
11:49 15,0 11,6 13,0 Zuiden 23,0 999,7 80 - 318
11:54 15,3 11,9 26,0 Zuiden 27,0 999,7 80 - 297
11:59 15,3 11,7 21,0 ZZW 27,0 999,7 79 - 223
12:04 15,4 11,8 32,0 ZZW 35,0 999,7 79 - 197
12:09 15,3 11,5 23,0 ZZW 35,0 999,7 78 - 148
12:14 15,4 11,4 16,0 Zuiden 24,0 999,7 77 - 167
12:19 15,6 11,6 16,0 ZZW 26,0 999,7 77 - 613
12:24 15,8 11,8 23,0 ZZO 32,0 999,7 77 - 615
12:29 15,9 11,7 16,0 Zuiden 31,0 999,7 76 - 524
12:34 15,9 11,5 27,0 ZZW 37,0 999,7 75 - 552
12:39 16,2 11,8 16,0 ZZO 37,0 999,7 75 - 628
12:44 16,5 12,0 27,0 Zuiden 34,0 999,7 75 - 724
12:49 16,4 11,8 26,0 ZZW 34,0 999,7 74 - 693
12:54 16,3 11,7 16,0 ZZW 31,0 999,7 74 - 689
12:59 16,2 11,6 26,0 ZZW 35,0 999,7 74 - 582
13:04 16,4 11,8 20,0 ZZW 32,0 999,7 74 - 652
13:09 16,4 11,5 34,0 Zuiden 34,0 999,7 73 - 619
13:14 16,3 11,5 23,0 ZZW 29,0 999,7 73 - 350
13:19 16,6 11,7 31,0 ZZW 34,0 999,7 73 - 765
13:24 16,6 11,7 23,0 Zuiden 32,0 999,7 73 - 657
13:29 16,2 11,1 23,0 ZZW 27,0 999,3 72 - 271
13:34 16,6 11,5 21,0 Zuiden 44,0 999,3 73 - 744
13:39 16,8 11,5 23,0 Zuiden 44,0 999,3 72 - 700
13:44 16,9 11,6 24,0 ZZW 39,0 999,3 71 - 656
13:49 16,9 11,6 18,0 ZZW 32,0 999,3 71 - 543
13:54 16,8 11,3 34,0 ZZW 34,0 999,3 70 - 693

Download your copy of this data-set  here

Our weather-data as stored at Weather Underground. Script ontwikkeld door Jim McMurry. Rewritten for template use Leuven-Template

Apparatuur in gebruik:

Weerstation
Davis Vantage pro 2

Weerprogramma
Meteobridge

Weercomputer
TP-Link TL-WR703N

Webleverancier
Versio

Davis Vantage pro 2

Meteobridge

TP-Link TL-WR703N

Versio